This is the latest recevied weather packets stored in our database for station/object DL9LAF-4. If no packets are shown the sender has not sent any weather packets the latest 10 day(s).
| Time | Temp. | Humidity | Pressure | Rain* | Wind** | Luminosity | Snow |
|---|---|---|---|---|---|---|---|
| 1777447552 | 8.33° C | 73% | 1009 hPa | 0 mm | - | - | - |
| 1777446952 | 7.78° C | 75% | 1009 hPa | 0 mm | - | - | - |
| 1777446352 | 7.78° C | 76% | 1009 hPa | 0 mm | - | - | - |
| 1777445752 | 7.22° C | 77% | 1008.9 hPa | 0 mm | - | - | - |
| 1777445152 | 6.67° C | 78% | 1008.9 hPa | 0 mm | - | - | - |
| 1777444552 | 6.11° C | 78% | 1008.9 hPa | 0 mm | - | - | - |
| 1777443952 | 5° C | 78% | 1009 hPa | 0 mm | - | - | - |
| 1777443352 | 4.44° C | 78% | 1008.7 hPa | 0 mm | - | - | - |
| 1777442752 | 3.89° C | 78% | 1008.7 hPa | 0 mm | - | - | - |
| 1777442152 | 3.33° C | 77% | 1008.5 hPa | 0 mm | - | - | - |
| 1777441552 | 2.78° C | 77% | 1008.5 hPa | 0 mm | - | - | - |
| 1777440952 | 2.78° C | 76% | 1008.4 hPa | 0 mm | - | - | - |
| 1777440352 | 2.22° C | 76% | 1008.2 hPa | 0 mm | - | - | - |
| 1777439752 | 2.22° C | 76% | 1008.4 hPa | 0 mm | - | - | - |
| 1777439152 | 1.67° C | 75% | 1008.5 hPa | 0 mm | - | - | - |
| 1777438552 | 1.67° C | 74% | 1008.2 hPa | 0 mm | - | - | - |
| 1777437952 | 1.11° C | 74% | 1008.2 hPa | 0 mm | - | - | - |
| 1777437352 | 1.11° C | 74% | 1008 hPa | 0 mm | - | - | - |
| 1777436752 | 1.11° C | 73% | 1008.2 hPa | 0 mm | - | - | - |
| 1777436152 | 1.11° C | 73% | 1008 hPa | 0 mm | - | - | - |
| 1777435552 | 1.11° C | 73% | 1008.2 hPa | 0 mm | - | - | - |
| 1777434952 | 1.11° C | 72% | 1008.2 hPa | 0 mm | - | - | - |
| 1777434352 | 1.11° C | 71% | 1008 hPa | 0 mm | - | - | - |
| 1777433752 | 1.67° C | 71% | 1007.9 hPa | 0 mm | - | - | - |
| 1777433152 | 1.67° C | 70% | 1007.7 hPa | 0 mm | - | - | - |
* Rain latest hour (hover to see other rain measurements)
** Current wind speed in m/s (hover to see current wind gust speed)